STARLINK-5678, 55460

Orbit data source: Space-Track

STARLINK-5678, 55460 is a payload satellite owned by SpaceX/Seattle (US) in LEO that was launched on Thu, 02 Feb 2023 UTC via an FALCON 9 launch vehicle from the Air Force Eastern Test Range (AFETR). Payload-class satellites include a variety of spacecraft equipped with specific instruments for various scientific and technological missions. These include communications satellites like Starlink; space stations such as the ISS; scientific satellites like the Hubble; Earth observation satellites from companies like Planet Labs, Umbra, and HawkEye 360; GPS; miniature CubeSats for education and research; and military/defense satellites.

Loading next visibility...
Identifier
55460, 2023-015M
Orbit
LEO
Country
Flag of USUS
Related business
Manufacturer
SpaceX/Seattle
Mission
Operational Commercial Communications
Bus & Motor
STARLINK, Unknown motor
Mass
305 kg wet, ~290 kg dry
Launch date (UTC)
2023-02-02 (3 years ago)
Launch vehicle
FALCON 9
Launch site
Air Force Eastern Test Range (AFETR)
Object type
Payload
Rocket body
Debris
Shape & HBR
Box + 1 Pan, 10.1 m
Radar Cross Section
13.562 m², Large (>1 m²)

Expand to show TLE details & history
Last TLE update: 16 hours ago

TLE from 16 hours ago
0 STARLINK-5678
1 55460U 23015M   26036.31959391  .00000490  00000-0  51324-4 0  9990
2 55460  42.9973 141.9672 0001199 152.7232 207.3673 15.02535938165885
Epoch: 2026-02-05T07:40Z
TLE epoch observation values (Epoch: 2026-02-05T07:40:12.913Z)
Latitude
-0.00006°
Longitude
-108.56019°
Altitude
559.596 km
Speed
7.583 km/s
True Right ascension
09h 27m 52s
True Declination
0° 00' 00"
Sunlit
Object was in full shadow at epoch
Visualization orbit readout
Latitude
Unknown
Longitude
Unknown
Altitude
Unknown
Speed
Unknown
Apparent Right ascension
Unknown
Apparent Declination
Unknown
Sunlit
N/A
Visualization observer readout
Local Sidereal Time
01:58:58
Azimuth
Unknown
Elevation
Unknown
Doppler factor
Unknown
Orbital elements
Apogee altitude
561.836 km
Perigee altitude
560.172 km
Semi-major axis
6,939.141 km
Eccentricity
0.00012
Inclination
42.9973°
RAAN
141.9672°
Arg. of periapsis
152.7232°
True anomaly
207.36098°
Mean anomaly
207.3673°
Eccentric anomaly
207.36414°
Mean motion
3.75478 °/min
Orbital period
95.88 mins
BSTAR
0.000051324
Loading maneuver chart data...
Computing Atmospheric mass density...
Loading historical data...
Loading historical data...
Loading historical data...
Loading historical data...
Loading historical data...
Loading historical data...
Loading historical data...

Documentation

Showing up to 5 results
|